STARLINK-35920, 66623

Orbit data source: Space-Track

STARLINK-35920, 66623 is a payload satellite owned by SpaceX/Seattle (US) in LEO that was launched on Sun, 23 Nov 2025 UTC via an FALCON 9 launch vehicle from the Air Force Western Test Range (AFWTR). Payload-class satellites include a variety of spacecraft equipped with specific instruments for various scientific and technological missions. These include communications satellites like Starlink; space stations such as the ISS; scientific satellites like the Hubble; Earth observation satellites from companies like Planet Labs, Umbra, and HawkEye 360; GPS; miniature CubeSats for education and research; and military/defense satellites.

Loading next visibility...
Identifier
66623, 2025-271G
Orbit
LEO
Country
Flag of USUS
Related business
Manufacturer
SpaceX/Seattle
Mission
Operational Commercial Communications
Bus & Motor
STARLINK V2MO, Unknown motor
Mass
575 kg wet, ~530 kg dry
Launch date (UTC)
2025-11-23 (10 months ago)
Launch vehicle
FALCON 9
Launch site
Air Force Western Test Range (AFWTR)
Object type
Payload
Rocket body
Debris
Shape & HBR
Box + 1 Pan, 17.7 m
Radar Cross Section
41.120 m², Large (>1 m²)

Expand to show TLE details & history
Last TLE update: 2 days ago

TLE from 2 days ago
0 STARLINK-35920
1 66623U 25271G   26264.40143722  .00012389  00000-0  37714-3 0  9991
2 66623  53.1597 305.7232 0000900 121.9735 238.1355 15.34403664 47604
Epoch: 2026-09-21T09:38Z
TLE epoch observation values (Epoch: 2026-09-21T09:38:04.175Z)
Latitude
-0.00005°
Longitude
160.92397°
Altitude
463.919 km
Speed
7.636 km/s
True Right ascension
20h 22m 53s
True Declination
0° 00' 00"
Sunlit
Object was in full shadow at epoch
Visualization orbit readout
Latitude
Unknown
Longitude
Unknown
Altitude
Unknown
Speed
Unknown
Apparent Right ascension
Unknown
Apparent Declination
Unknown
Sunlit
N/A
Visualization observer readout
Local Sidereal Time
17:12:37
Azimuth
Unknown
Elevation
Unknown
Doppler factor
Unknown
Orbital elements
Apogee altitude
463.565 km
Perigee altitude
462.334 km
Semi-major axis
6,841.086 km
Eccentricity
0.00009
Inclination
53.1597°
RAAN
305.7232°
Arg. of periapsis
121.9735°
True anomaly
238.12674°
Mean anomaly
238.1355°
Eccentric anomaly
238.13112°
Mean motion
3.8358 °/min
Orbital period
93.85 mins
BSTAR
0.00037714
Loading maneuver chart data...
Computing Atmospheric mass density...
Loading historical data...
Loading historical data...
Loading historical data...
Loading historical data...
Loading historical data...
Loading historical data...
Loading historical data...

Documentation

Showing up to 5 results
|